• In Kazakhstan
  • List of Countries
  • For 7 days
  • Water Temperature
  • Satellite Maps
  • Weather Map
  • News
  • Weather Widgets
  • user-avatar
    Login

    Hourly Weather Zalazek

    Today, 22 February, Friday

    Time Temperature Precipitation Wind Pressure Humidity
    00:00 +3°C° 0.9 mm 4 mps 730 mmHg 91%
    01:00 +3°C° 0.9 mm 4 mps 730 mmHg 92%
    02:00 +3°C° 0.8 mm 3 mps 730 mmHg 93%
    03:00 +2°C° 0.8 mm 3 mps 729 mmHg 94%
    04:00 +2°C° 0.8 mm 3 mps 729 mmHg 95%
    05:00 -1°C° 0.8 mm 4 mps 730 mmHg 93%
    06:00 -4°C° 0.8 mm 5 mps 730 mmHg 92%
    07:00 -7°C° 0.8 mm 7 mps 731 mmHg 91%
    08:00 -7°C° 0.3 mm 7 mps 732 mmHg 85%
    09:00 -7°C° 0.3 mm 7 mps 734 mmHg 79%
    10:00 -6°C° 0.3 mm 6 mps 735 mmHg 73%
    11:00 -6°C° 0 mm 6 mps 736 mmHg 69%
    12:00 -6°C° 0 mm 6 mps 737 mmHg 65%
    13:00 -6°C° 0 mm 6 mps 737 mmHg 61%
    14:00 -6°C° 0 mm 6 mps 738 mmHg 60%
    15:00 -8°C° 0 mm 6 mps 739 mmHg 60%
    16:00 -8°C° 0 mm 6 mps 739 mmHg 59%
    17:00 -9°C° 0 mm 6 mps 740 mmHg 60%
    18:00 -8°C° 0 mm 5 mps 741 mmHg 60%
    19:00 -9°C° 0 mm 4 mps 741 mmHg 61%
    20:00 -8°C° 0 mm 5 mps 742 mmHg 60%
    21:00 -8°C° 0 mm 5 mps 742 mmHg 59%
    22:00 -8°C° 0 mm 5 mps 743 mmHg 57%
    23:00 -8°C° 0 mm 5 mps 743 mmHg 58%

    Tomorrow, 23 February, Saturday

    Time Temperature Precipitation Wind Pressure Humidity
    00:00 -8°C° 0 mm 5 mps 744 mmHg 59%
    01:00 -8°C° 0 mm 5 mps 744 mmHg 59%
    02:00 -10°C° 0 mm 5 mps 744 mmHg 60%
    03:00 -9°C° 0 mm 4 mps 744 mmHg 61%
    04:00 -9°C° 0 mm 4 mps 744 mmHg 62%
    05:00 -9°C° 0 mm 4 mps 744 mmHg 64%
    06:00 -9°C° 0 mm 4 mps 744 mmHg 65%
    07:00 -9°C° 0 mm 4 mps 745 mmHg 67%
    08:00 -9°C° 0 mm 4 mps 745 mmHg 63%
    09:00 -8°C° 0 mm 4 mps 745 mmHg 60%
    10:00 -7°C° 0 mm 4 mps 746 mmHg 56%
    11:00 -7°C° 0 mm 4 mps 746 mmHg 54%
    12:00 -5°C° 0 mm 4 mps 746 mmHg 52%
    13:00 -5°C° 0 mm 3 mps 745 mmHg 49%
    14:00 -5°C° 0 mm 3 mps 745 mmHg 50%
    15:00 -5°C° 0 mm 3 mps 745 mmHg 50%
    16:00 -5°C° 0 mm 3 mps 745 mmHg 51%
    17:00 -5°C° 0 mm 2 mps 745 mmHg 55%
    18:00 -3°C° 0 mm 1 mps 745 mmHg 59%
    19:00 -4°C° 0 mm 1 mps 746 mmHg 64%
    20:00 -5°C° 0 mm 0 mps 746 mmHg 64%
    21:00 -5°C° 0 mm 0 mps 746 mmHg 64%
    22:00 -5°C° 0 mm 0 mps 746 mmHg 65%
    23:00 -5°C° 0 mm 0 mps 745 mmHg 65%

    Day after tomorrow, 24 February, Sunday

    Time Temperature Precipitation Wind Pressure Humidity
    00:00 -5°C° 0 mm 0 mps 745 mmHg 65%
    01:00 -5°C° 0 mm 0 mps 745 mmHg 65%
    02:00 -5°C° 0 mm 0 mps 745 mmHg 63%
    03:00 -5°C° 0 mm 0 mps 745 mmHg 61%
    04:00 -4°C° 0 mm 0 mps 744 mmHg 58%
    05:00 -5°C° 0 mm 0 mps 744 mmHg 59%
    06:00 -4°C° 0 mm 1 mps 744 mmHg 59%
    07:00 -4°C° 0 mm 1 mps 744 mmHg 59%
    08:00 -2°C° 0 mm 1 mps 744 mmHg 52%
    09:00 -1°C° 0 mm 1 mps 744 mmHg 44%
    10:00 -2°C° 0 mm 2 mps 744 mmHg 37%
    11:00 -1°C° 0 mm 2 mps 744 mmHg 37%
    12:00 -1°C° 0 mm 2 mps 744 mmHg 37%
    13:00 +1°C° 0 mm 2 mps 744 mmHg 38%
    14:00 +1°C° 0 mm 2 mps 743 mmHg 42%
    15:00 +1°C° 0 mm 2 mps 743 mmHg 47%
    16:00 -1°C° 0 mm 2 mps 743 mmHg 52%
    17:00 -1°C° 0 mm 2 mps 743 mmHg 56%
    18:00 -2°C° 0 mm 2 mps 743 mmHg 59%
    19:00 -2°C° 0 mm 2 mps 743 mmHg 63%
    20:00 -2°C° 0 mm 2 mps 743 mmHg 63%
    21:00 -3°C° 0 mm 2 mps 743 mmHg 63%
    22:00 -3°C° 0 mm 2 mps 743 mmHg 64%
    23:00 -3°C° 0 mm 2 mps 743 mmHg 62%

    25 February, Monday

    Time Temperature Precipitation Wind Pressure Humidity
    00:00 -3°C° 0 mm 2 mps 743 mmHg 61%
    01:00 -3°C° 0 mm 2 mps 743 mmHg 60%
    02:00 -4°C° 0 mm 3 mps 743 mmHg 59%
    03:00 -2°C° 0 mm 3 mps 742 mmHg 59%
    04:00 -2°C° 0 mm 3 mps 742 mmHg 58%
    05:00 -2°C° 0 mm 3 mps 742 mmHg 59%
    06:00 -2°C° 0 mm 3 mps 742 mmHg 60%
    07:00 -2°C° 0 mm 3 mps 742 mmHg 60%
    08:00 -2°C° 0 mm 4 mps 742 mmHg 59%
    09:00 0°C° 0 mm 4 mps 742 mmHg 58%
    10:00 +1°C° 0 mm 4 mps 742 mmHg 57%
    11:00 +3°C° 0 mm 4 mps 742 mmHg 60%
    12:00 +3°C° 0 mm 4 mps 741 mmHg 62%
    13:00 +4°C° 0 mm 4 mps 741 mmHg 64%
    14:00 +4°C° 0 mm 4 mps 741 mmHg 70%
    15:00 +3°C° 0 mm 3 mps 741 mmHg 76%
    16:00 +3°C° 0 mm 3 mps 741 mmHg 81%
    17:00 +3°C° 0 mm 2 mps 741 mmHg 86%
    18:00 +2°C° 0 mm 2 mps 741 mmHg 90%
    19:00 +1°C° 0 mm 2 mps 741 mmHg 95%
    20:00 -1°C° 0 mm 2 mps 741 mmHg 96%
    21:00 -1°C° 0 mm 2 mps 741 mmHg 97%
    22:00 0°C° 0 mm 1 mps 741 mmHg 98%
    23:00 -2°C° 0 mm 2 mps 740 mmHg 98%

    26 February, Tuesday

    Time Temperature Precipitation Wind Pressure Humidity
    00:00 -2°C° 0 mm 2 mps 740 mmHg 97%
    01:00 -2°C° 0 mm 2 mps 739 mmHg 97%
    02:00 -2°C° 0 mm 2 mps 739 mmHg 97%
    03:00 -1°C° 0 mm 3 mps 738 mmHg 96%
    04:00 -1°C° 0 mm 3 mps 738 mmHg 95%
    05:00 -1°C° 0 mm 3 mps 737 mmHg 93%
    06:00 -2°C° 0 mm 4 mps 737 mmHg 92%
    07:00 -2°C° 0 mm 4 mps 736 mmHg 90%
    08:00 0°C° 0 mm 5 mps 736 mmHg 84%
    09:00 +1°C° 0 mm 6 mps 735 mmHg 78%
    10:00 +2°C° 0 mm 7 mps 735 mmHg 72%
    11:00 +2°C° 0 mm 7 mps 735 mmHg 74%
    12:00 +2°C° 0 mm 7 mps 734 mmHg 76%
    13:00 +2°C° 0 mm 6 mps 734 mmHg 78%
    14:00 +3°C° 0 mm 6 mps 734 mmHg 78%
    15:00 +3°C° 0 mm 6 mps 734 mmHg 79%
    16:00 +3°C° 0 mm 5 mps 734 mmHg 80%
    17:00 +2°C° 0 mm 5 mps 734 mmHg 82%
    18:00 +1°C° 0 mm 5 mps 734 mmHg 84%
    19:00 +1°C° 0 mm 4 mps 734 mmHg 87%
    20:00 0°C° 0 mm 4 mps 734 mmHg 86%
    21:00 0°C° 0 mm 5 mps 734 mmHg 85%
    22:00 -1°C° 0 mm 5 mps 734 mmHg 84%
    23:00 -1°C° 0 mm 4 mps 734 mmHg 83%

    27 February, Wednesday

    Time Temperature Precipitation Wind Pressure Humidity
    00:00 -2°C° 0 mm 4 mps 734 mmHg 82%
    01:00 -2°C° 0 mm 4 mps 734 mmHg 81%
    02:00 -3°C° 0 mm 4 mps 734 mmHg 83%
    03:00 -3°C° 0 mm 4 mps 734 mmHg 85%
    04:00 -3°C° 0 mm 4 mps 734 mmHg 87%
    05:00 -2°C° 0 mm 3 mps 734 mmHg 88%
    06:00 -2°C° 0 mm 3 mps 734 mmHg 89%
    07:00 -2°C° 0 mm 3 mps 734 mmHg 89%
    08:00 -2°C° 0 mm 4 mps 734 mmHg 84%
    09:00 -1°C° 0 mm 4 mps 734 mmHg 79%
    10:00 +1°C° 0 mm 4 mps 734 mmHg 74%
    11:00 +3°C° 0 mm 4 mps 734 mmHg 70%
    12:00 +3°C° 0 mm 5 mps 734 mmHg 66%
    13:00 +5°C° 0 mm 5 mps 733 mmHg 62%
    14:00 +5°C° 0 mm 4 mps 733 mmHg 62%
    15:00 +5°C° 0 mm 3 mps 733 mmHg 63%
    16:00 +5°C° 0 mm 3 mps 732 mmHg 63%
    17:00 +4°C° 0 mm 3 mps 732 mmHg 65%
    18:00 +2°C° 0 mm 3 mps 732 mmHg 68%
    19:00 +1°C° 0 mm 3 mps 731 mmHg 70%
    20:00 +1°C° 0 mm 3 mps 731 mmHg 70%
    21:00 +1°C° 0 mm 3 mps 730 mmHg 69%
    22:00 +1°C° 0 mm 3 mps 730 mmHg 69%
    23:00 +1°C° 0 mm 4 mps 729 mmHg 64%
    Show more